THORAD DELTA 1 DEB, 8177

Orbit data source: Space-Track

THORAD DELTA 1 DEB, 8177 is space debris in SSO originally from a launch on Fri, 15 Nov 1974 UTC launched from the Air Force Western Test Range (AFWTR). Debris objects in space refer to the collection of defunct objects orbiting the Earth. Examples of debris include non-operational satellites, rocket bodies, and fragments generated from explosions, collisions, or faulty payload assembly.

Loading next visibility...
Identifier
8177, 1974-089AT
Orbit
SSO
Country
Flag of USUS
Related business
Manufacturer
Unknown
Mission
Spacecraft
Bus & Motor
Unknown
Mass
Unknown
Launch date (UTC)
1974-11-15 (52 years ago)
Launch vehicle
Unknown
Launch site
Air Force Western Test Range (AFWTR)
Object type
Payload
Rocket body
Debris
Shape & HBR
Unknown shape, 0.2 m
Radar Cross Section
Medium (>0.1 m² and <1 m²)

Expand to show TLE details & history
Last TLE update: 1 day ago

TLE from 1 day ago
0 THORAD DELTA 1 DEB
1 08177U 74089AT  26207.26205647 -.00000379  00000-0 -36039-2 0  9994
2 08177 101.1283 313.3650 0262050  74.8506 314.5077 12.05361238274446
Epoch: 2026-07-26T06:17Z
TLE epoch observation values (Epoch: 2026-07-26T06:17:21.679Z)
Latitude
26.65111°
Longitude
-90.57558°
Altitude
1,515.13 km
Speed
7.174 km/s
True Right ascension
20h 30m 54s
True Declination
26° 31' 36"
Sunlit
Object was in full shadow at epoch
Visualization orbit readout
Latitude
Unknown
Longitude
Unknown
Altitude
Unknown
Speed
Unknown
Apparent Right ascension
Unknown
Apparent Declination
Unknown
Sunlit
N/A
Visualization observer readout
Local Sidereal Time
19:18:20
Azimuth
Unknown
Elevation
Unknown
Doppler factor
Unknown
Orbital elements
Apogee altitude
1,865.01 km
Perigee altitude
1,444.019 km
Semi-major axis
8,032.652 km
Eccentricity
0.02621
Inclination
101.1283°
RAAN
313.365°
Arg. of periapsis
74.8506°
True anomaly
312.31644°
Mean anomaly
314.5077°
Eccentric anomaly
313.4171°
Mean motion
3.01477 °/min
Orbital period
119.41 mins
BSTAR
-0.0036039
Loading maneuver chart data...
Computing Atmospheric mass density...

Documentation

Showing up to 5 results
|